Time,TemperatureF,DewpointF,PressureIn,WindDirection,WindDirectionDegrees,WindSpeedMPH,WindSpeedGustMPH,Humidity,HourlyPrecipIn,Conditions,Clouds,dailyrainin,SolarRadiationWatts/m^2,SoftwareType,DateUTC
2013-01-29 00:21:00,8.0,3.0,-100.00,North,5,4.0,18.0,80,0.00,,,0.00,0.000000,,2013-01-29 07:21:00,
2013-01-29 00:32:00,8.0,3.0,-100.00,North,5,4.0,18.0,80,0.00,,,0.00,0.000000,,2013-01-29 07:32:00,
2013-01-29 00:42:00,8.0,3.0,-100.00,North,5,4.0,18.0,80,0.00,,,0.00,0.000000,,2013-01-29 07:42:00,
2013-01-29 00:52:00,8.0,3.0,-100.00,North,5,4.0,18.0,80,0.00,,,0.00,0.000000,,2013-01-29 07:52:00,
2013-01-29 01:21:00,7.0,2.0,-100.00,NW,312,4.0,9.0,81,0.00,,,0.00,0.000000,,2013-01-29 08:21:00,
2013-01-29 01:31:00,7.0,2.0,-100.00,NW,312,4.0,9.0,81,0.00,,,0.00,0.000000,,2013-01-29 08:31:00,
2013-01-29 01:41:00,7.0,2.0,-100.00,NW,312,4.0,9.0,81,0.00,,,0.00,0.000000,,2013-01-29 08:41:00,
2013-01-29 01:52:00,7.0,2.0,-100.00,NW,312,4.0,9.0,81,0.00,,,0.00,0.000000,,2013-01-29 08:52:00,
2013-01-29 02:21:00,6.0,1.0,-100.00,NNW,335,3.0,8.0,79,0.00,,,0.00,0.000000,,2013-01-29 09:21:00,
2013-01-29 02:32:00,6.0,1.0,-100.00,NNW,335,3.0,8.0,79,0.00,,,0.00,0.000000,,2013-01-29 09:32:00,
2013-01-29 02:42:00,6.0,1.0,-100.00,NNW,335,3.0,8.0,79,0.00,,,0.00,0.000000,,2013-01-29 09:42:00,
2013-01-29 02:51:00,6.0,1.0,-100.00,NNW,335,3.0,8.0,79,0.00,,,0.00,0.000000,,2013-01-29 09:51:00,
2013-01-29 03:21:00,5.0,0.0,-100.00,NNW,327,3.0,6.0,79,0.00,,,-99.99,0.000000,,2013-01-29 10:21:00,
2013-01-29 03:32:00,5.0,0.0,-100.00,NNW,327,3.0,6.0,79,0.00,,,-99.99,0.000000,,2013-01-29 10:32:00,
2013-01-29 03:41:00,5.0,0.0,-100.00,NNW,327,3.0,6.0,79,0.00,,,-99.99,0.000000,,2013-01-29 10:41:00,
2013-01-29 03:51:00,5.0,0.0,-100.00,NNW,327,3.0,6.0,79,0.00,,,-99.99,0.000000,,2013-01-29 10:51:00,
2013-01-29 04:22:00,4.0,-1.0,-100.00,NW,321,3.0,10.0,79,0.00,,,0.00,0.000000,,2013-01-29 11:22:00,
2013-01-29 04:32:00,4.0,-1.0,-100.00,NW,321,3.0,10.0,79,0.00,,,0.00,0.000000,,2013-01-29 11:32:00,
2013-01-29 04:42:00,4.0,-1.0,-100.00,NW,321,3.0,10.0,79,0.00,,,0.00,0.000000,,2013-01-29 11:42:00,
2013-01-29 04:52:00,4.0,-1.0,-100.00,NW,321,3.0,10.0,79,0.00,,,0.00,0.000000,,2013-01-29 11:52:00,
2013-01-29 05:22:00,3.0,-2.0,-100.00,WNW,299,5.0,9.0,79,0.00,,,0.00,0.000000,,2013-01-29 12:22:00,
2013-01-29 05:33:00,3.0,-2.0,-100.00,WNW,299,5.0,9.0,79,0.00,,,0.00,0.000000,,2013-01-29 12:33:00,
2013-01-29 05:43:00,3.0,-2.0,-100.00,WNW,299,5.0,9.0,79,0.00,,,0.00,0.000000,,2013-01-29 12:43:00,
2013-01-29 05:52:00,3.0,-2.0,-100.00,WNW,299,5.0,9.0,79,0.00,,,0.00,0.000000,,2013-01-29 12:52:00,
2013-01-29 06:22:00,2.0,-3.0,-100.00,NNW,342,4.0,10.0,78,0.00,,,0.00,0.000000,,2013-01-29 13:22:00,
2013-01-29 06:32:00,2.0,-3.0,-100.00,NNW,342,4.0,10.0,78,0.00,,,0.00,0.000000,,2013-01-29 13:32:00,
2013-01-29 06:42:00,2.0,-3.0,-100.00,NNW,342,4.0,10.0,78,0.00,,,0.00,0.000000,,2013-01-29 13:42:00,
2013-01-29 06:52:00,2.0,-3.0,-100.00,NNW,342,4.0,10.0,78,0.00,,,0.00,0.000000,,2013-01-29 13:52:00,
2013-01-29 07:22:00,1.0,-4.0,-100.00,NNW,335,3.0,12.0,78,0.00,,,0.00,0.000000,,2013-01-29 14:22:00,
2013-01-29 07:33:00,1.0,-4.0,-100.00,NNW,335,3.0,12.0,78,0.00,,,0.00,0.000000,,2013-01-29 14:33:00,
2013-01-29 07:43:00,1.0,-4.0,-100.00,NNW,335,3.0,12.0,78,0.00,,,0.00,0.000000,,2013-01-29 14:43:00,
2013-01-29 07:52:00,1.0,-4.0,-100.00,NNW,335,3.0,12.0,78,0.00,,,0.00,0.000000,,2013-01-29 14:52:00,
2013-01-29 08:22:00,1.0,-4.0,-100.00,North,353,5.0,9.0,77,0.00,,,0.00,3.000000,,2013-01-29 15:22:00,
2013-01-29 08:33:00,1.0,-4.0,-100.00,North,353,5.0,9.0,77,0.00,,,0.00,3.000000,,2013-01-29 15:33:00,
2013-01-29 08:43:00,1.0,-4.0,-100.00,North,353,5.0,9.0,77,0.00,,,0.00,3.000000,,2013-01-29 15:43:00,
2013-01-29 08:52:00,1.0,-4.0,-100.00,North,353,5.0,9.0,77,0.00,,,0.00,3.000000,,2013-01-29 15:52:00,
2013-01-29 09:22:00,6.0,-3.0,-100.00,North,6,5.0,8.0,66,0.00,,,0.00,49.000000,,2013-01-29 16:22:00,
2013-01-29 09:32:00,6.0,-3.0,-100.00,North,6,5.0,8.0,66,0.00,,,0.00,49.000000,,2013-01-29 16:32:00,
2013-01-29 09:42:00,6.0,-3.0,-100.00,North,6,5.0,8.0,66,0.00,,,0.00,49.000000,,2013-01-29 16:42:00,
2013-01-29 09:52:00,6.0,-3.0,-100.00,North,6,5.0,8.0,66,0.00,,,0.00,49.000000,,2013-01-29 16:52:00,
2013-01-29 10:22:00,7.0,-4.0,-100.00,WNW,285,8.0,14.0,59,0.00,,,0.00,115.000000,,2013-01-29 17:22:00,
2013-01-29 10:32:00,7.0,-4.0,-100.00,WNW,285,8.0,14.0,59,0.00,,,0.00,115.000000,,2013-01-29 17:32:00,
2013-01-29 10:42:00,7.0,-4.0,-100.00,WNW,285,8.0,14.0,59,0.00,,,0.00,115.000000,,2013-01-29 17:42:00,
2013-01-29 10:52:00,7.0,-4.0,-100.00,WNW,285,8.0,14.0,59,0.00,,,0.00,115.000000,,2013-01-29 17:52:00,
2013-01-29 11:22:00,9.0,-5.0,-100.00,WNW,290,6.0,12.0,51,0.00,,,-99.99,134.000000,,2013-01-29 18:22:00,
2013-01-29 11:33:00,9.0,-5.0,-100.00,WNW,290,6.0,12.0,51,0.00,,,-99.99,134.000000,,2013-01-29 18:33:00,
2013-01-29 11:42:00,9.0,-5.0,-100.00,WNW,290,6.0,12.0,51,0.00,,,-99.99,134.000000,,2013-01-29 18:42:00,
2013-01-29 11:52:00,9.0,-5.0,-100.00,WNW,290,6.0,12.0,51,0.00,,,-99.99,134.000000,,2013-01-29 18:52:00,
2013-01-29 12:22:00,13.0,-5.0,-100.00,WNW,288,9.0,16.0,44,0.00,,,0.00,240.000000,,2013-01-29 19:22:00,
2013-01-29 12:32:00,13.0,-5.0,-100.00,WNW,288,9.0,16.0,44,0.00,,,0.00,240.000000,,2013-01-29 19:32:00,
2013-01-29 12:42:00,13.0,-5.0,-100.00,WNW,288,9.0,16.0,44,0.00,,,0.00,240.000000,,2013-01-29 19:42:00,
2013-01-29 12:52:00,13.0,-5.0,-100.00,WNW,288,9.0,16.0,44,0.00,,,0.00,240.000000,,2013-01-29 19:52:00,
2013-01-29 13:22:00,15.0,-7.0,-100.00,WNW,289,11.0,22.0,36,0.00,,,0.00,550.000000,,2013-01-29 20:22:00,
2013-01-29 13:33:00,15.0,-7.0,-100.00,WNW,289,11.0,22.0,36,0.00,,,0.00,550.000000,,2013-01-29 20:33:00,
2013-01-29 13:42:00,15.0,-7.0,-100.00,WNW,289,11.0,22.0,36,0.00,,,0.00,550.000000,,2013-01-29 20:42:00,
2013-01-29 13:53:00,15.0,-7.0,-100.00,WNW,289,11.0,22.0,36,0.00,,,0.00,550.000000,,2013-01-29 20:53:00,
2013-01-29 14:22:00,11.0,-6.0,-100.00,WNW,293,11.0,23.0,46,0.00,,,0.00,422.000000,,2013-01-29 21:22:00,
2013-01-29 14:33:00,11.0,-6.0,-100.00,WNW,293,11.0,23.0,46,0.00,,,0.00,422.000000,,2013-01-29 21:33:00,
2013-01-29 14:42:00,11.0,-6.0,-100.00,WNW,293,11.0,23.0,46,0.00,,,0.00,422.000000,,2013-01-29 21:42:00,
2013-01-29 14:52:00,11.0,-6.0,-100.00,WNW,293,11.0,23.0,46,0.00,,,0.00,422.000000,,2013-01-29 21:52:00,
2013-01-29 15:22:00,9.0,-9.0,-100.00,WNW,295,9.0,19.0,43,0.00,,,0.00,202.000000,,2013-01-29 22:22:00,
2013-01-29 15:33:00,9.0,-9.0,-100.00,WNW,295,9.0,19.0,43,0.00,,,0.00,202.000000,,2013-01-29 22:33:00,
2013-01-29 15:42:00,9.0,-9.0,-100.00,WNW,295,9.0,19.0,43,0.00,,,0.00,202.000000,,2013-01-29 22:42:00,
2013-01-29 15:52:00,9.0,-9.0,-100.00,WNW,295,9.0,19.0,43,0.00,,,0.00,202.000000,,2013-01-29 22:52:00,
2013-01-29 16:22:00,8.0,-6.0,-100.00,WNW,287,7.0,21.0,53,0.00,,,0.00,90.000000,,2013-01-29 23:22:00,
2013-01-29 16:33:00,8.0,-6.0,-100.00,WNW,287,7.0,21.0,53,0.00,,,0.00,90.000000,,2013-01-29 23:33:00,
2013-01-29 16:42:00,8.0,-6.0,-100.00,WNW,287,7.0,21.0,53,0.00,,,0.00,90.000000,,2013-01-29 23:42:00,
2013-01-29 16:52:00,8.0,-6.0,-100.00,WNW,287,7.0,21.0,53,0.00,,,0.00,90.000000,,2013-01-29 23:52:00,
2013-01-29 17:22:00,7.0,-6.0,-100.00,WNW,289,10.0,20.0,55,0.00,,,0.00,45.000000,,2013-01-30 00:22:00,
2013-01-29 17:32:00,7.0,-6.0,-100.00,WNW,289,10.0,20.0,55,0.00,,,0.00,45.000000,,2013-01-30 00:32:00,
2013-01-29 17:42:00,7.0,-6.0,-100.00,WNW,289,10.0,20.0,55,0.00,,,0.00,45.000000,,2013-01-30 00:42:00,
2013-01-29 17:52:00,7.0,-6.0,-100.00,WNW,289,10.0,20.0,55,0.00,,,0.00,45.000000,,2013-01-30 00:52:00,
2013-01-29 18:22:00,5.0,-5.0,-100.00,NW,316,4.0,19.0,63,0.00,,,0.00,3.000000,,2013-01-30 01:22:00,
2013-01-29 18:32:00,5.0,-5.0,-100.00,NW,316,4.0,19.0,63,0.00,,,0.00,3.000000,,2013-01-30 01:32:00,
2013-01-29 18:42:00,5.0,-5.0,-100.00,NW,316,4.0,19.0,63,0.00,,,0.00,3.000000,,2013-01-30 01:42:00,
2013-01-29 18:52:00,5.0,-5.0,-100.00,NW,316,4.0,19.0,63,0.00,,,0.00,3.000000,,2013-01-30 01:52:00,
2013-01-29 19:22:00,4.0,-2.0,-100.00,NNW,330,2.0,13.0,77,0.00,,,0.00,0.000000,,2013-01-30 02:22:00,
2013-01-29 19:33:00,4.0,-2.0,-100.00,NNW,330,2.0,13.0,77,0.00,,,0.00,0.000000,,2013-01-30 02:33:00,
2013-01-29 19:42:00,4.0,-2.0,-100.00,NNW,330,2.0,13.0,77,0.00,,,0.00,0.000000,,2013-01-30 02:42:00,
2013-01-29 19:52:00,4.0,-2.0,-100.00,NNW,330,2.0,13.0,77,0.00,,,0.00,0.000000,,2013-01-30 02:52:00,
2013-01-29 20:22:00,4.0,-3.0,-100.00,WNW,294,9.0,17.0,73,0.00,,,0.00,0.000000,,2013-01-30 03:22:00,
2013-01-29 20:32:00,4.0,-3.0,-100.00,WNW,294,9.0,17.0,73,0.00,,,0.00,0.000000,,2013-01-30 03:32:00,
2013-01-29 20:42:00,4.0,-3.0,-100.00,WNW,294,9.0,17.0,73,0.00,,,0.00,0.000000,,2013-01-30 03:42:00,
2013-01-29 20:51:00,4.0,-3.0,-100.00,WNW,294,9.0,17.0,73,0.00,,,0.00,0.000000,,2013-01-30 03:51:00,
2013-01-29 21:22:00,0.0,-6.0,-100.00,ENE,57,2.0,17.0,74,0.00,,,0.00,0.000000,,2013-01-30 04:22:00,
2013-01-29 21:32:00,0.0,-6.0,-100.00,ENE,57,2.0,17.0,74,0.00,,,0.00,0.000000,,2013-01-30 04:32:00,
2013-01-29 21:41:00,0.0,-6.0,-100.00,ENE,57,2.0,17.0,74,0.00,,,0.00,0.000000,,2013-01-30 04:41:00,
2013-01-29 21:52:00,0.0,-6.0,-100.00,ENE,57,2.0,17.0,74,0.00,,,0.00,0.000000,,2013-01-30 04:52:00,
2013-01-29 22:22:00,1.0,-4.0,-100.00,ENE,77,1.0,3.0,77,0.00,,,0.00,0.000000,,2013-01-30 05:22:00,
2013-01-29 22:32:00,1.0,-4.0,-100.00,ENE,77,1.0,3.0,77,0.00,,,0.00,0.000000,,2013-01-30 05:32:00,
2013-01-29 22:43:00,1.0,-4.0,-100.00,ENE,77,1.0,3.0,77,0.00,,,0.00,0.000000,,2013-01-30 05:43:00,
2013-01-29 22:52:00,1.0,-4.0,-100.00,ENE,77,1.0,3.0,77,0.00,,,0.00,0.000000,,2013-01-30 05:52:00,
2013-01-29 23:21:00,1.0,-4.0,-100.00,North,358,1.0,5.0,78,0.00,,,0.00,0.000000,,2013-01-30 06:21:00,
2013-01-29 23:32:00,1.0,-4.0,-100.00,North,358,1.0,5.0,78,0.00,,,0.00,0.000000,,2013-01-30 06:32:00,
2013-01-29 23:42:00,1.0,-4.0,-100.00,North,358,1.0,5.0,78,0.00,,,0.00,0.000000,,2013-01-30 06:42:00,
2013-01-29 23:52:00,1.0,-4.0,-100.00,North,358,1.0,5.0,78,0.00,,,0.00,0.000000,,2013-01-30 06:52:00,